User: anonymous   Login
Location: Newark
(40.7360°N, 74.1730°W)
Time: 20:04:47
(UTC-04:00)
Language:

ISS - Orbit

View from above orbital plane
View from above orbital plane
View from above satellite
View from above satellite

Ground track
Ground track

The orbit data is extracted from the following two-line orbital elements,

1 25544U 98067A   15210.69455156 -.00000889  00000-0 -59643-5 0  9999
2 25544 051.6429 231.7790 0001134 019.6619 090.8304 15.54916974954653
Epoch (UTC): 29 July 2015 16:40:09
Eccentricity: 0.0001134
inclination: 51.6429°
perigee height: 401 km
apogee height: 403 km
right ascension of ascending node: 231.7790°
argument of perigee: 19.6619°
revolutions per day: 15.54916974
mean anomaly at epoch: 90.8304°
orbit number at epoch: 95465

The dashed part of the orbit path shows where the satellite is in the earth's shadow,  

DLR